Location: Newark
(55.7681°N, 37.7103°E)
Time: 20:16:17
(UTC+00:00)

N. Korean satellite - Pass Details

Date: 21 October 2019
Orbit: 456 x 506 km, 97.2° (Epoch: 10 November)

Event Time Altitude Azimuth Distance (km) Brightness Sun altitude
Rises 02:44:31 0° 23° (NNE) 2,553 10.5 -12.8°
Reaches altitude 10° 02:46:53 10° 38° (NE) 1,678 9.8 -12.5°
Maximum altitude 02:49:51 24° 93° (E) 1,060 9.3 -12.1°
Drops below altitude 10° 02:52:51 10° 149° (SSE) 1,689 9.8 -11.7°
Sets 02:55:13 0° 163° (SSE) 2,574 10.5 -11.3°
